[[{"header":{"parameterUnit":"m.s-1","parameterCategory":1,"la1":30.2991,"la2":30.254,"lo1":-89.0895,"lo2":-89.0444,"dy":0.0017,"dx":0.0017,"nx":28,"ny":28,"refTime":"2024-07-08T21:00:00:Z","depth":0,"parameterNumber":2,"parameterNumberName":"U-component_of_WINDS"},"data":[0,0,0,0,0,0,0,0,0,0,0,0,0,0,0,0,0,0,0,0,0,0,0,0,0,0,0,0,0,0,0,0,0,0,0,0,0,0,0,0,0,0,0,0,0,0,0,0,0,0,0,0,0,0,0,0,0,0,4.3588,4.359,0,4.3713,4.3715,4.3716,4.3692,4.3689,4.3687,4.3685,4.3815,4.382,4.3826,0,0,0,0,0,0,0,0,0,0,0,0,0,4.3329,4.3334,4.3588,4.359,4.3591,4.3713,4.3715,4.3717,4.3692,4.3689,4.3686,4.3684,4.3813,4.382,4.3826,0,0,0,0,0,0,0,0,0,0,0,0,0,4.3447,4.3336,4.3588,4.3594,4.3596,4.3713,4.3715,4.3717,4.3693,4.3689,4.3686,4.3683,4.3811,4.3819,4.3827,4.3947,0,0,4.3853,4.3857,0,0,0,0,0,0,0,0,4.344,4.3456,4.3591,4.3594,4.3596,4.3683,4.3671,4.3794,4.3693,4.3656,4.3685,4.3681,4.3774,4.3785,4.3816,4.3953,4.3959,4.3854,4.3859,4.3862,4.3865,0,0,0,0,0,0,0,4.3432,4.3451,4.3638,4.3593,4.3596,4.359,4.3603,4.3694,4.3733,4.3659,4.3657,4.3672,4.3775,4.3808,4.3819,4.3961,4.3853,4.3861,4.3866,4.3869,4.4201,4.4205,0,0,0,0,0,0,4.3422,4.3444,4.3634,4.3642,4.3508,4.3598,4.3612,4.3659,4.3732,4.3739,4.3675,4.3671,4.3796,4.3809,4.3824,4.3967,4.3862,4.387,4.3875,4.4198,4.4202,4.4206,0,0,0,0,0,0,4.3416,4.3439,4.3629,4.3543,4.3566,4.3606,4.3658,4.3663,4.3696,4.3744,4.3751,4.3702,4.3793,4.3812,4.3916,4.3972,4.3874,4.3881,4.4193,4.4199,4.4204,4.4257,0,0,0,0,0,0,4.3409,4.3437,4.3483,4.3544,4.3571,4.3719,4.3662,4.3668,4.3711,4.3706,4.3771,4.3779,4.3792,4.3904,4.3925,4.3981,4.3888,4.4188,4.4196,4.4202,4.4251,4.4264,4.4275,0,0,0,0,0,4.34,4.3493,4.3485,4.3508,4.3629,4.3722,4.3738,4.3751,4.3715,4.3762,4.3792,4.3777,4.3963,4.3915,4.3938,4.3998,4.4185,4.4194,4.4202,4.4245,4.4261,4.4275,0,0,0,0,0,0,4.3439,4.3502,4.3493,4.3609,4.3661,4.3718,4.3777,4.3768,4.3831,4.3824,4.3838,4.3853,4.3959,4.3989,4.3935,4.4117,4.4069,4.4082,4.4094,4.4109,4.4122,4.4111,4.3895,0,0,0,0,0,4.3461,4.3531,4.3582,4.368,4.3706,4.3737,4.3778,4.3784,4.3838,4.3859,4.3897,4.3951,4.4021,4.4067,4.4135,4.4255,4.4268,4.4308,4.432,4.433,4.4341,4.4406,4.4424,4.4234,4.4234,4.4234,0,0,4.3507,4.355,4.3594,4.3689,4.3729,4.3801,4.3755,4.3834,4.3888,4.3872,4.3972,4.4002,4.4062,4.4175,4.4226,4.4203,4.4397,4.4341,4.4349,4.4355,4.4417,4.4435,4.4451,4.424,4.4239,4.4238,0,0,4.3628,4.3668,4.3753,4.3794,4.3856,4.3876,4.3896,4.3955,4.3974,4.4075,4.4063,4.4128,4.4249,4.4292,4.433,4.4467,4.4455,4.4489,4.4553,4.4616,4.4631,4.4644,4.4691,4.4708,4.45,4.45,4.45,0,4.3678,4.3786,4.3798,4.3878,4.3919,4.3907,4.3993,4.4033,4.4113,4.4143,4.4116,4.4266,4.4306,4.4428,4.4461,4.4493,4.4516,4.4481,4.4627,4.4641,4.4654,4.4699,4.4717,4.4504,4.4503,4.4503,4.4502,0,4.3844,4.3919,4.398,4.4057,4.4106,4.4189,4.4213,4.4261,4.4263,4.4285,4.4388,4.4435,4.4511,4.4541,4.4544,4.4663,4.4647,4.4624,4.4575,4.4675,4.4718,4.4735,4.4509,4.4507,4.4506,4.4506,0,0,4.3992,4.4074,4.4097,4.4131,4.4197,4.4256,4.4338,4.4411,4.4452,4.4508,4.4577,4.4679,4.4658,4.4701,4.4708,4.4764,4.4867,4.4733,4.4735,4.4755,4.5,4.5016,4.5036,4.486,4.4863,4.4866,4.4995,0,4.4118,4.4262,4.4275,4.4403,4.4473,4.4462,4.4533,4.4582,4.4605,4.4668,4.4694,4.4766,4.4733,4.4758,4.4813,4.4843,4.4916,4.4834,4.4923,4.4926,4.4907,4.5059,4.5076,4.5195,4.5012,4.5015,4.5017,0,4.4284,4.4344,4.448,4.4535,4.4565,4.4629,4.4697,4.4757,4.4811,4.4825,4.4872,4.4872,4.4956,4.4905,4.5021,4.4964,4.5002,4.5022,4.5027,4.5035,4.4977,4.5069,4.5234,4.5251,4.5043,4.5041,4.5039,0,4.4377,4.4492,4.4587,4.4617,4.4685,4.473,4.4761,4.4812,4.4855,4.4915,4.4943,4.5013,4.505,4.5104,4.5122,4.5084,4.5237,4.5188,4.525,4.5249,4.5282,4.5279,4.5453,4.5308,4.5308,4.5308,4.5307,0,4.4516,4.4599,4.463,4.4688,4.4781,4.4795,4.4886,4.4915,4.496,4.5024,4.502,4.508,4.5101,4.5165,4.5181,4.5273,4.5291,4.5304,4.5307,4.5303,4.5302,4.5327,4.5319,4.5313,4.5312,4.5311,4.531,0,4.4635,4.4659,4.4762,4.4818,4.4834,4.4899,4.4947,4.5003,4.5026,4.5107,4.5127,4.5162,4.5237,4.5261,4.5352,4.5362,4.547,4.5466,4.5451,4.5451,4.5511,4.5505,4.5706,4.5733,4.5572,4.5574,4.5575,0,4.4721,4.4784,4.4846,4.4888,4.492,4.4988,4.5032,4.5049,4.5094,4.5161,4.5209,4.5283,4.5343,4.5463,4.5497,4.5566,4.5563,4.5629,4.5574,4.5568,4.5563,4.5558,4.5564,4.5639,4.5641,4.5642,4.5644,0,4.487,4.4879,4.4942,4.5009,4.5061,4.5114,4.5166,4.5201,4.5225,4.5277,4.5353,4.5399,4.5491,4.5564,4.5634,4.5666,4.5659,4.5661,4.5679,4.5675,4.5663,4.5669,4.5478,4.5656,4.5655,4.5654,4.5653,4.5653,4.4974,4.503,4.5082,4.5151,4.5192,4.524,4.5296,4.5325,4.5388,4.5463,4.547,4.5551,4.5604,4.5698,4.5733,4.5797,4.5778,4.5805,4.5811,4.5817,4.5821,4.5654,4.581,4.581,4.581,4.5809,4.5809,0,4.5122,4.5155,4.5219,4.5291,4.5346,4.5334,4.5391,4.5438,4.5509,4.5559,4.5617,4.5704,4.5775,4.5814,4.5885,4.5929,4.5927,4.5947,4.5943,4.595,4.5834,4.5811,4.5947,4.5947,4.5947,4.5947,4.5947,4.5947,4.5206,4.5298,4.5313,4.5425,4.5457,4.5537,4.557,4.5614,4.5654,4.575,4.5809,4.5834,4.5879,4.5953,4.6017,4.6027,4.6053,4.6074,4.6082,4.5973,4.5958,4.5945,4.5923,4.608,4.608,4.6192,4.6193,4.6194]},{"header":{"parameterUnit":"m.s-1","parameterCategory":1,"la1":30.2991,"la2":30.254,"lo1":-89.0895,"lo2":-89.0444,"dy":0.0017,"dx":0.0017,"nx":28,"ny":28,"refTime":"2024-07-08T21:00:00:Z","depth":0,"parameterNumber":3,"parameterNumberName":"V-component_of_WINDS"},"data":[0,0,0,0,0,0,0,0,0,0,0,0,0,0,0,0,0,0,0,0,0,0,0,0,0,0,0,0,0,0,0,0,0,0,0,0,0,0,0,0,0,0,0,0,0,0,0,0,0,0,0,0,0,0,0,0,0,0,7.0207,7.0208,0,7.0249,7.025,7.025,7.0217,7.0215,7.0214,7.0212,7.025,7.0252,7.0254,0,0,0,0,0,0,0,0,0,0,0,0,0,7.0091,7.0093,7.0207,7.0208,7.0208,7.0249,7.025,7.025,7.0217,7.0215,7.0213,7.0212,7.0249,7.0251,7.0254,0,0,0,0,0,0,0,0,0,0,0,0,0,7.0138,7.0094,7.0207,7.0196,7.0196,7.0249,7.025,7.0251,7.0217,7.0215,7.0213,7.0211,7.0248,7.0251,7.0255,7.0318,0,0,7.0265,7.0267,0,0,0,0,0,0,0,0,7.0135,7.0142,7.0197,7.0197,7.0197,7.0226,7.0223,7.0273,7.0218,7.0209,7.0212,7.021,7.0243,7.0247,7.0259,7.032,7.0322,7.0265,7.0268,7.0269,7.027,0,0,0,0,0,0,0,7.0132,7.014,7.0224,7.0198,7.0198,7.0188,7.0192,7.0232,7.0237,7.021,7.0207,7.0213,7.0242,7.0256,7.026,7.0322,7.0265,7.0268,7.0271,7.0272,7.0438,7.044,0,0,0,0,0,0,7.0131,7.0138,7.0222,7.0225,7.016,7.0192,7.0196,7.0218,7.0237,7.0237,7.0215,7.0211,7.0251,7.0256,7.0261,7.0337,7.0269,7.0272,7.0274,7.0436,7.0439,7.0441,0,0,0,0,0,0,7.0128,7.0139,7.022,7.0181,7.019,7.0196,7.0221,7.022,7.0234,7.0241,7.0241,7.0228,7.0249,7.0256,7.0305,7.0338,7.0274,7.0277,7.0433,7.0437,7.044,7.049,0,0,0,0,0,0,7.0125,7.0138,7.0164,7.0182,7.0193,7.0266,7.0223,7.0223,7.0241,7.0237,7.0253,7.0254,7.0248,7.03,7.0308,7.0341,7.028,7.043,7.0435,7.0439,7.0485,7.0494,7.0502,0,0,0,0,0,7.0121,7.0174,7.0165,7.0175,7.0225,7.0268,7.0274,7.0268,7.0244,7.0269,7.0273,7.0253,7.0333,7.0305,7.0314,7.0349,7.0428,7.0433,7.0438,7.0481,7.0493,7.0502,0,0,0,0,0,0,7.0157,7.0177,7.0166,7.0228,7.0247,7.0262,7.0293,7.028,7.0305,7.03,7.029,7.0294,7.0345,7.0352,7.0321,7.0412,7.0376,7.0384,7.0406,7.0416,7.0425,7.0422,7.0283,0,0,0,0,0,7.0173,7.0208,7.0222,7.0274,7.0285,7.0288,7.0306,7.03,7.0318,7.0326,7.0333,7.035,7.0379,7.0398,7.0425,7.0486,7.0489,7.0514,7.0523,7.053,7.0536,7.0569,7.058,7.0458,7.0458,7.0458,0,0,7.0204,7.0219,7.0241,7.0282,7.0296,7.0331,7.0294,7.0332,7.0358,7.0331,7.0378,7.0385,7.0402,7.0458,7.0483,7.0465,7.0571,7.0537,7.0542,7.0545,7.0575,7.0587,7.0597,7.0462,7.0461,7.0461,0,0,7.0279,7.0295,7.0341,7.0356,7.0379,7.0381,7.0392,7.041,7.0414,7.0462,7.0442,7.0471,7.0521,7.0535,7.0548,7.0631,7.0613,7.0639,7.0684,7.0716,7.0726,7.0734,7.0763,7.0774,7.0646,7.0646,7.0646,0,7.0315,7.0369,7.0365,7.0405,7.0423,7.0403,7.0449,7.0463,7.0492,7.0504,7.0485,7.0548,7.0558,7.0617,7.0637,7.0649,7.066,7.0637,7.0725,7.0734,7.0741,7.0769,7.078,7.0649,7.0649,7.0648,7.0648,0,7.0411,7.0449,7.0483,7.0515,7.0537,7.0579,7.058,7.0602,7.0595,7.0598,7.0647,7.0659,7.0689,7.0702,7.0694,7.0759,7.0748,7.0727,7.0691,7.0756,7.0782,7.0792,7.0653,7.0652,7.0651,7.065,0,0,7.0509,7.054,7.0552,7.0567,7.0591,7.0619,7.066,7.0692,7.0711,7.0732,7.0765,7.0809,7.079,7.0805,7.0799,7.0827,7.0891,7.0803,7.0803,7.0819,7.0964,7.0979,7.0991,7.088,7.0882,7.0884,7.0962,0,7.0585,7.066,7.0658,7.0726,7.0761,7.0743,7.0778,7.0796,7.0801,7.0829,7.0833,7.0864,7.0837,7.0846,7.0874,7.0878,7.092,7.0872,7.091,7.0911,7.0906,7.1005,7.1021,7.1094,7.0972,7.0974,7.0975,0,7.0684,7.0711,7.0784,7.0805,7.0819,7.0851,7.088,7.0908,7.0927,7.0928,7.0947,7.0936,7.0976,7.094,7.0995,7.0962,7.0977,7.0982,7.0984,7.0987,7.0947,7.101,7.1117,7.1128,7.0991,7.099,7.0988,0,7.0747,7.0802,7.0853,7.0866,7.0892,7.0915,7.0926,7.0944,7.0963,7.0987,7.0999,7.1027,7.1042,7.1063,7.106,7.1034,7.1115,7.1079,7.1116,7.1116,7.1133,7.1132,7.1244,7.1144,7.1144,7.1144,7.1143,0,7.0832,7.0877,7.0883,7.0914,7.0964,7.096,7.1009,7.1017,7.1034,7.1065,7.105,7.1079,7.1073,7.1102,7.1099,7.1144,7.1151,7.1152,7.1151,7.1153,7.1153,7.1163,7.1157,7.1146,7.1146,7.1145,7.1145,0,7.0911,7.0917,7.0971,7.0992,7.0998,7.1034,7.105,7.1079,7.1083,7.1122,7.1131,7.1137,7.117,7.1169,7.1205,7.1204,7.1259,7.1252,7.1254,7.1252,7.1289,7.1286,7.1411,7.1427,7.1317,7.1318,7.1319,0,7.0965,7.1,7.1025,7.1047,7.106,7.1094,7.1114,7.1112,7.1133,7.1159,7.1185,7.1217,7.1242,7.1296,7.1301,7.1329,7.1322,7.1365,7.1326,7.1328,7.1323,7.1321,7.1324,7.1372,7.1373,7.1374,7.1375,0,7.106,7.1061,7.1092,7.1125,7.1151,7.1175,7.1198,7.1216,7.1216,7.124,7.1276,7.1296,7.1335,7.1366,7.1394,7.1402,7.1388,7.1387,7.1397,7.14,7.1399,7.14,7.1274,7.1384,7.1383,7.1382,7.1382,7.1381,7.1127,7.1158,7.1181,7.1216,7.1234,7.1256,7.1285,7.1294,7.1324,7.1357,7.1353,7.1392,7.1411,7.1446,7.1458,7.1487,7.1472,7.1486,7.149,7.1494,7.1498,7.1395,7.1492,7.1492,7.1491,7.1491,7.1491,0,7.1221,7.1236,7.1268,7.1303,7.133,7.1318,7.1342,7.1366,7.1401,7.1421,7.1447,7.1487,7.1519,7.1528,7.1557,7.1579,7.1573,7.1587,7.1585,7.1587,7.151,7.1498,7.1591,7.1591,7.1591,7.1591,7.1591,7.1591,7.1273,7.1324,7.1329,7.1388,7.1401,7.1442,7.1457,7.1477,7.1493,7.1539,7.1566,7.1573,7.1588,7.1619,7.1647,7.1648,7.166,7.1676,7.1675,7.1602,7.1592,7.1583,7.1572,7.1678,7.1679,7.175,7.175,7.1751]}]]